Weather History for KBRO - June, 2013

Change the Weather History Date:

Friday, June 28, 2013

  Actual Average Record
Temperature  
Mean Temperature 86 °F 84 °F  
Max Temperature 97 °F 93 °F 99 °F (1900)
Min Temperature 75 °F 76 °F 64 °F (1901)
Degree Days  
Heating Degree Days 0 0  
Month to date heating degree days 0 0  
Since 1 June heating degree days 0 0  
Since 1 July heating degree days 329 554  
Cooling Degree Days 21 19  
Month to date cooling degree days 575 525  
Year to date cooling degree days 1697 1618  
Since 1 June cooling degree days 575 525  
Growing Degree Days 36 (Base 50)    
Moisture  
Dew Point 73 °F    
Average Humidity 68    
Maximum Humidity 100    
Minimum Humidity 35    
Precipitation  
Precipitation T in 0.09 in 1.83 in (1883)
Month to date precipitation 0.85 2.40  
Year to date precipitation 6.45 10.16  
Sea Level Pressure  
Sea Level Pressure 29.92 in    
Wind  
Wind Speed 9 mph (SSE)    
Max Wind Speed 18 mph    
Max Gust Speed 26 mph    
Visibility 10 miles    
Events      
T = Trace of Precipitation, MM = Missing Value Source: NWS Daily Summary

Daily Weather History Graph

Daily Weather History Graph

Search for Another Location

Airport or City:

Trip Planner

Search our weather history database for the weather conditions in past years. The results will help you decide how hot, cold, wet, or windy it might be!

Date:

Astronomy

Jun. 28, 2013 Rise Set
Actual Time 6:40 AM CDT 8:25 PM CDT
Civil Twilight 6:14 AM CDT 8:51 PM CDT
Nautical Twilight 5:43 AM CDT 9:22 PM CDT
Astronomical Twilight 5:10 AM CDT 9:55 PM CDT
Moon No Moon Rise 12:12 PM CDT (6/28)
Length of Visible Light 14h 36m
Length of Day
13h 44m
Waning Gibbous, 66% of the Moon is Illuminated
Jun 28
Waning Gibbous
Jun 29
Last Quarter
Jul 8
New
Jul 15
First Quarter
Jul 22
Full

Hourly Weather History & Observations

Time (CDT) Temp. Heat Index Dew Point Humidity Pressure Visibility Wind Dir Wind Speed Gust Speed Precip Events Conditions
12:53 AM 79.0 °F - 75.9 °F 90% 29.98 in 10.0 mi South 6.9 mph - N/A   Clear
1:53 AM 78.1 °F - 75.9 °F 93% 29.96 in 10.0 mi South 6.9 mph - N/A   Clear
2:53 AM 78.1 °F - 75.9 °F 93% 29.96 in 10.0 mi South 5.8 mph - N/A   Clear
3:53 AM 77.0 °F - 75.0 °F 94% 29.96 in 10.0 mi SSE 3.5 mph - N/A   Clear
4:53 AM 75.9 °F - 75.0 °F 97% 29.97 in 10.0 mi Calm Calm - N/A   Clear
5:53 AM 75.9 °F - 75.0 °F 97% 29.96 in 10.0 mi Calm Calm - N/A   Clear
6:53 AM 75.9 °F - 75.0 °F 97% 29.96 in 10.0 mi ESE 3.5 mph - N/A   Clear
7:53 AM 78.1 °F - 77.0 °F 96% 29.95 in 10.0 mi SSE 5.8 mph - N/A   Clear
8:53 AM 84.0 °F 93.7 °F 77.0 °F 79% 29.96 in 10.0 mi South 9.2 mph - 0.00 in   Partly Cloudy
9:53 AM 88.0 °F 97.5 °F 75.0 °F 65% 29.95 in 10.0 mi South 12.7 mph - N/A   Partly Cloudy
10:53 AM 91.0 °F 98.2 °F 72.0 °F 53% 29.96 in 10.0 mi SSE 12.7 mph - N/A   Scattered Clouds
11:53 AM 93.9 °F 100.8 °F 71.1 °F 47% 29.94 in 10.0 mi South 13.8 mph 19.6 mph N/A   Partly Cloudy
12:53 PM 95.0 °F 100.7 °F 69.1 °F 43% 29.92 in 10.0 mi SSE 12.7 mph 19.6 mph N/A   Clear
1:53 PM 97.0 °F 102.8 °F 69.1 °F 40% 29.91 in 10.0 mi South 8.1 mph - N/A   Scattered Clouds
2:53 PM 97.0 °F 99.3 °F 64.0 °F 34% 29.89 in 10.0 mi South 11.5 mph 16.1 mph N/A   Clear
3:53 PM 96.1 °F 102.9 °F 70.0 °F 43% 29.88 in 10.0 mi SE 12.7 mph 20.7 mph N/A   Mostly Cloudy
4:53 PM 96.1 °F 101.6 °F 69.1 °F 41% 29.87 in 10.0 mi SE 15.0 mph - N/A   Clear
5:53 PM 93.0 °F 99.0 °F 70.0 °F 47% 29.86 in 10.0 mi SE 16.1 mph 21.9 mph N/A   Clear
6:53 PM 89.1 °F 96.0 °F 72.0 °F 57% 29.86 in 10.0 mi SE 17.3 mph - N/A   Clear
7:53 PM 86.0 °F 93.8 °F 73.9 °F 67% 29.86 in 10.0 mi SE 11.5 mph - N/A   Clear
8:53 PM 82.9 °F 89.4 °F 73.9 °F 74% 29.88 in 10.0 mi SE 11.5 mph - N/A   Clear
9:53 PM 81.0 °F 86.7 °F 75.0 °F 82% 29.88 in 10.0 mi SSE 9.2 mph - N/A   Clear
10:53 PM 80.1 °F 85.1 °F 75.0 °F 85% 29.90 in 10.0 mi SSE 10.4 mph - N/A   Clear
11:53 PM 80.1 °F 85.4 °F 75.9 °F 87% 29.89 in 10.0 mi South 8.1 mph - N/A   Clear